Eindhoven, Netherlands

2:02 AM CET on February 28, 2017 (GMT +0100)
Eindhoven Air Base

Weather History for EHEH - March, 2014

Change the Weather History Date:

Tuesday, March 4, 2014

  Actual Average Record
Temperature  
Mean Temperature 42 °F -  
Max Temperature 52 °F 51 °F 60 °F (1998)
Min Temperature 32 °F 36 °F 10 °F (2005)
Degree Days  
Heating Degree Days 23    
Moisture  
Dew Point 36 °F    
Average Humidity 78    
Maximum Humidity 100    
Minimum Humidity 43    
Precipitation  
Precipitation 0.00 in - - ()
Sea Level Pressure  
Sea Level Pressure 29.62 in    
Wind  
Wind Speed 5 mph ()    
Max Wind Speed 15 mph    
Max Gust Speed -    
Visibility 7.5 miles    
Events      
Averages and records for this station are not official NWS values.
T = Trace of Precipitation, MM = Missing Value Source: Averaged Metar Reports

Daily Weather History Graph

Daily Weather History Graph

Search for Another Location

Airport or City:

Trip Planner

Search our weather history database for the weather conditions in past years. The results will help you decide how hot, cold, wet, or windy it might be!

Date:

Astronomy

Mar. 04, 2014 Rise Set
Actual Time 7:17 AM CET 6:23 PM CET
Civil Twilight 6:43 AM CET 6:57 PM CET
Nautical Twilight 6:05 AM CET 7:35 PM CET
Astronomical Twilight 5:26 AM CET 8:14 PM CET
Moon 8:26 AM CET (3/4) 10:45 PM CET (3/4)
Length of Visible Light 12h 13m
Length of Day
11h 06m
Waxing Crescent, 13% of the Moon is Illuminated
Mar 4
Waxing Crescent
Mar 8
First Quarter
Mar 16
Full
Mar 24
Last Quarter
Mar 30
New

Hourly Weather History & Observations

Time (CET) Temp. Windchill Dew Point Humidity Pressure Visibility Wind Dir Wind Speed Gust Speed Precip Events Conditions
12:00 AM 40 °F - 33 °F 69% 29.40 in 17 mi SE 4.5 mph - -   Scattered Clouds
12:25 AM 41.0 °F 37.1 °F 33.8 °F 76% 29.39 in 6.2 mi SE 5.8 mph - N/A   Unknown
12:55 AM 39.2 °F 35.9 °F 33.8 °F 81% 29.39 in 6.2 mi SE 4.6 mph - N/A   Partly Cloudy
1:00 AM 39 °F - 33 °F 73% 29.42 in 17 mi SE 4.5 mph - -   Partly Cloudy
1:25 AM 37.4 °F 33.8 °F 33.8 °F 87% 29.42 in 6.2 mi SE 4.6 mph - N/A   Unknown
1:55 AM 39.2 °F 35.0 °F 33.8 °F 81% 29.42 in 6.2 mi SE 5.8 mph - N/A   Unknown
2:00 AM 38 °F - 33 °F 76% 29.44 in 17 mi SE 4.5 mph - -  
2:25 AM 39.2 °F 37.0 °F 33.8 °F 81% 29.42 in 6.2 mi ESE 3.5 mph - N/A   Unknown
2:55 AM 37.4 °F 33.8 °F 32.0 °F 81% 29.44 in 6.2 mi ESE 4.6 mph - N/A   Partly Cloudy
3:00 AM 37 °F - 33 °F 79% 29.45 in 16 mi ESE 4.5 mph - -   Scattered Clouds
3:25 AM 35.6 °F - 32.0 °F 87% 29.44 in 6.2 mi SE 2.3 mph - N/A   Unknown
3:55 AM 33.8 °F - 32.0 °F 93% 29.44 in 6.2 mi ESE 2.3 mph - N/A   Partly Cloudy
4:00 AM 35 °F - 32 °F 86% 29.47 in 12 mi SE 2.2 mph - -  
4:25 AM 32.0 °F - 30.2 °F 93% 29.47 in 6.2 mi ESE 2.3 mph - N/A   Unknown
4:55 AM 33.8 °F 29.6 °F 32.0 °F 93% 29.47 in 6.2 mi ESE 4.6 mph - N/A   Unknown
5:00 AM 34 °F - 31 °F 86% 29.50 in 16 mi SE 4.5 mph - -  
5:25 AM 33.8 °F 28.6 °F 30.2 °F 87% 29.50 in 6.2 mi SE 5.8 mph - N/A   Unknown
5:55 AM 33.8 °F 28.6 °F 32.0 °F 93% 29.50 in 6.2 mi SE 5.8 mph - N/A   Unknown
6:00 AM 35 °F - 32 °F 83% 29.53 in 13 mi SE 4.5 mph - -  
6:22 AM 33.8 °F - 32.0 °F 93% 29.50 in 6.2 mi East 2.3 mph - N/A   Unknown
6:25 AM 33.8 °F - 32.0 °F 93% 29.50 in 6.2 mi East 2.3 mph - N/A   Unknown
6:30 AM 33.8 °F - 32.0 °F 93% 29.50 in 6.2 mi SE 1.2 mph - N/A   Unknown
6:55 AM 32.0 °F - 32.0 °F 100% 29.53 in 6.2 mi ESE 2.3 mph - N/A   Mostly Cloudy
7:00 AM 33 °F - 31 °F 90% 29.55 in 11 mi SE 2.2 mph - -   Partly Cloudy
7:25 AM 33.8 °F 30.8 °F 32.0 °F 93% 29.53 in 6.2 mi SE 3.5 mph - N/A   Mostly Cloudy
7:55 AM 35.6 °F 31.7 °F 32.0 °F 87% 29.53 in 6.2 mi SSE 4.6 mph - N/A   Mostly Cloudy
8:00 AM 35 °F - 33 °F 88% 29.57 in 11 mi SE 4.5 mph - -   Mostly Cloudy
8:25 AM 35.6 °F - 33.8 °F 93% 29.56 in 6.2 mi SSE 2.3 mph - N/A   Overcast
8:55 AM 39.2 °F 35.9 °F 35.6 °F 87% 29.56 in 6.2 mi SSE 4.6 mph - N/A   Mostly Cloudy
9:00 AM 39 °F - 35 °F 78% 29.59 in 14 mi SSE 4.5 mph - -   Mostly Cloudy
9:25 AM 41.0 °F 38.0 °F 35.6 °F 81% 29.59 in 6.2 mi South 4.6 mph - N/A   Overcast
9:32 AM 41.0 °F 38.0 °F 35.6 °F 81% 29.59 in 6.2 mi South 4.6 mph - N/A   Mostly Cloudy
9:55 AM 41.0 °F 37.1 °F 35.6 °F 81% 29.59 in 6.2 mi South 5.8 mph - N/A   Mostly Cloudy
10:00 AM 43 °F - 37 °F 74% 29.60 in 14 mi South 4.5 mph - -   Scattered Clouds
10:25 AM 46.4 °F 42.9 °F 39.2 °F 76% 29.59 in 6.2 mi SW 6.9 mph - N/A   Partly Cloudy
10:55 AM 48.2 °F - 39.2 °F 71% 29.59 in 6.2 mi SW 4.6 mph - N/A   Unknown
11:00 AM 48 °F - 40 °F 66% 29.62 in 15 mi SW 4.5 mph - -   Scattered Clouds
11:18 AM 50.0 °F - 39.2 °F 66% 29.59 in 6.2 mi South 5.8 mph - N/A   Scattered Clouds
11:25 AM 50.0 °F - 41.0 °F 71% 29.59 in 6.2 mi South 6.9 mph - N/A   Scattered Clouds
11:29 AM 48.2 °F - 39.2 °F 71% 29.59 in 6.2 mi SSE 6.9 mph - N/A   Scattered Clouds
11:31 AM 50.0 °F - 39.2 °F 66% 29.59 in 6.2 mi South 8.1 mph - N/A   Scattered Clouds
11:38 AM 50.0 °F - 41.0 °F 71% 29.59 in 6.2 mi South 6.9 mph - N/A   Mostly Cloudy
11:55 AM 51.8 °F - 41.0 °F 67% 29.62 in 6.2 mi South 8.1 mph - N/A   Mostly Cloudy
11:57 AM 51.8 °F - 41.0 °F 67% 29.62 in 6.2 mi South 8.1 mph - N/A   Mostly Cloudy
12:00 PM 51 °F - 40 °F 55% 29.62 in 14 mi South 6.7 mph - -   Partly Cloudy
12:04 PM 51.8 °F - 41.0 °F 67% 29.62 in 6.2 mi South 8.1 mph - N/A   Mostly Cloudy
12:08 PM 50.0 °F - 39.2 °F 66% 29.62 in 6.2 mi South 8.1 mph - N/A   Mostly Cloudy
12:25 PM 51.8 °F - 41.0 °F 67% 29.62 in 6.2 mi South 9.2 mph - N/A   Overcast
12:38 PM 50.0 °F - 39.2 °F 66% 29.62 in 6.2 mi South 6.9 mph - N/A   Scattered Clouds
12:55 PM 51.8 °F - 37.4 °F 58% 29.62 in 6.2 mi South 8.1 mph - N/A   Partly Cloudy
1:00 PM 50 °F - 39 °F 55% 29.63 in 22 mi South 8.9 mph - -   Partly Cloudy
1:25 PM 51.8 °F - 37.4 °F 58% 29.62 in 6.2 mi South 10.4 mph - N/A   Partly Cloudy
1:55 PM 50.0 °F - 37.4 °F 62% 29.62 in 6.2 mi SSW 8.1 mph - N/A   Mostly Cloudy
2:00 PM 52 °F - 36 °F 43% 29.63 in 25 mi SSW 8.9 mph - -   Partly Cloudy
2:25 PM 51.8 °F - 37.4 °F 58% 29.62 in 6.2 mi SSW 8.1 mph - N/A   Mostly Cloudy
2:42 PM 51.8 °F - 37.4 °F 58% 29.62 in 6.2 mi SW 12.7 mph - N/A   Mostly Cloudy
2:55 PM 51.8 °F - 37.4 °F 58% 29.62 in 6.2 mi SSW 12.7 mph - N/A   Mostly Cloudy
3:00 PM 51 °F - 37 °F 48% 29.65 in 28 mi SW 13.4 mph - -   Partly Cloudy
3:25 PM 50.0 °F - 37.4 °F 62% 29.62 in 6.2 mi SW 10.4 mph - N/A   Mostly Cloudy
3:55 PM 50.0 °F - 37.4 °F 62% 29.65 in 6.2 mi SW 15.0 mph - N/A   Mostly Cloudy
4:00 PM 50 °F - 38 °F 52% 29.67 in 22 mi SW 13.4 mph - -   Partly Cloudy
4:25 PM 50.0 °F - 37.4 °F 62% 29.65 in 6.2 mi SW 12.7 mph - N/A   Overcast
4:34 PM 48.2 °F - 37.4 °F 66% 29.65 in 6.2 mi SW 11.5 mph - N/A   Scattered Clouds
4:55 PM 48.2 °F - 35.6 °F 62% 29.65 in 6.2 mi WSW 15.0 mph - N/A   Unknown
5:00 PM 49 °F - 35 °F 48% 29.69 in 19 mi SW 13.4 mph - -   Scattered Clouds
5:25 PM 48.2 °F - 35.6 °F 62% 29.68 in 6.2 mi WSW 11.5 mph - N/A   Partly Cloudy
5:47 PM 46.4 °F 42.9 °F 35.6 °F 66% 29.68 in 6.2 mi West 6.9 mph - N/A   Unknown
5:55 PM 46.4 °F 43.5 °F 35.6 °F 66% 29.68 in 6.2 mi West 5.8 mph - N/A   Unknown
6:00 PM 46 °F - 36 °F 57% 29.71 in 17 mi West 4.5 mph - -  
6:25 PM 44.6 °F - 35.6 °F 71% 29.71 in 6.2 mi West 2.3 mph - N/A   Unknown
6:55 PM 41.0 °F - 35.6 °F 81% 29.71 in 6.2 mi WSW 2.3 mph - N/A   Unknown
7:00 PM 42 °F - 36 °F 72% 29.75 in 12 mi SW 2.2 mph - -   Partly Cloudy
7:25 PM 39.2 °F - 35.6 °F 87% 29.74 in 6.2 mi WSW 2.3 mph - N/A   Unknown
7:34 PM 39.2 °F - 35.6 °F 87% 29.74 in 6.2 mi West 1.2 mph - N/A   Unknown
7:55 PM 39.2 °F - 35.6 °F 87% 29.74 in 6.2 mi West 2.3 mph - N/A   Unknown
7:57 PM 39.2 °F - 35.6 °F 87% 29.74 in 6.2 mi SW 2.3 mph - N/A   Unknown
8:00 PM 37 °F - 33 °F 81% 29.77 in 8 mi SW 2.2 mph - -   Scattered Clouds
8:17 PM 37.4 °F - 35.6 °F 93% 29.77 in 6.2 mi SW 2.3 mph - N/A   Unknown
8:25 PM 37.4 °F - 35.6 °F 93% 29.77 in 6.2 mi SW 2.3 mph - N/A   Scattered Clouds
8:55 PM 37.4 °F - 35.6 °F 93% 29.77 in 6.2 mi SW 2.3 mph - N/A   Mostly Cloudy
9:00 PM 36 °F - 34 °F 90% 29.79 in 7 mi SSW 4.5 mph - -   Partly Cloudy
9:25 PM 39.2 °F 35.0 °F 37.4 °F 93% 29.77 in 6.2 mi SSW 5.8 mph - N/A   Mostly Cloudy
9:55 PM 39.2 °F 35.0 °F 37.4 °F 93% 29.77 in 5.6 mi SW 5.8 mph - N/A   Mist
10:00 PM 40 °F - 38 °F 90% 29.80 in 6 mi WSW 2.2 mph - -   Mist
10:02 PM 39.2 °F - 37.4 °F 93% 29.77 in 5.0 mi WSW 2.3 mph - N/A   Scattered Clouds
10:07 PM 39.2 °F - 37.4 °F 93% 29.77 in 4.3 mi SW 1.2 mph - N/A   Mostly Cloudy
10:25 PM 39.2 °F - 37.4 °F 93% 29.80 in 3.7 mi SW 2.3 mph - N/A   Partly Cloudy
10:55 PM 37.4 °F 33.8 °F 37.4 °F 100% 29.80 in 3.7 mi WSW 4.6 mph - N/A   Mist
11:00 PM 37 °F - 37 °F 98% 29.83 in 3 mi WSW 4.5 mph - -   Mist
11:11 PM 35.6 °F 31.7 °F 33.8 °F 93% 29.80 in - WSW 4.6 mph - N/A   Mist
11:16 PM 35.6 °F 31.7 °F 33.8 °F 93% 29.80 in - WSW 4.6 mph - N/A   Mist
11:25 PM 37.4 °F 33.8 °F 37.4 °F 100% 29.80 in 1.9 mi WSW 4.6 mph - N/A   Mist
11:55 PM 35.6 °F 32.8 °F 35.6 °F 100% 29.83 in 1.6 mi WSW 3.5 mph - N/A   Mist